FW7196 Weather Reports


Display with metric or nautical units.
time (UTC)temp
F
wind
direction
speed
MPH
gust
MPH
rain 1hr
in
rain 24hr
in
rain mn
in
humidity
%
barometer
mb
20260901011606 60 0 0.0 0.0 0.00 0.01 0.01 85 1018.3
20260901010043 61 0 0.0 0.0 0.00 0.01 0.01 84 1018.3
20260901004546 61 0 0.0 0.0 0.00 0.01 0.01 84 1018.4
20260901003049 62 0 0.0 0.0 0.00 0.01 0.01 84 1018.4
20260901001544 62 0 0.0 0.0 0.00 0.01 0.01 85 1018.3
20260901000045 63 63 0.0 0.0 0.00 0.01 0.01 83 1018.3
20260831234548 64 0 0.0 0.0 0.00 0.01 0.01 81 1018.3
20260831233048 65 0 0.0 0.0 0.00 0.01 0.01 79 1018.4
20260831231546 66 0 0.0 0.0 0.00 0.01 0.01 75 1018.4
20260831230053 67 0 0.0 0.0 0.00 0.01 0.01 71 1018.5
20260831224548 68 0 0.0 0.0 0.00 0.01 0.01 68 1018.7
20260831223047 69 0 0.0 0.0 0.00 0.01 0.01 64 1018.6
20260831221602 70 0 0.0 1.0 0.00 0.01 0.01 63 1018.6
20260831220047 71 0 0.0 2.0 0.00 0.01 0.01 62 1018.6
20260831214553 72 0 0.0 3.0 0.00 0.01 0.01 60 1018.6
20260831213045 72 113 0.0 2.0 0.00 0.01 0.01 59 1018.6
20260831211547 74 57 0.0 2.0 0.00 0.01 0.01 61 1018.4
20260831210048 75 255 0.0 2.0 0.00 0.01 0.01 59 1018.5
20260831204546 75 0 1.0 4.0 0.00 0.01 0.01 58 1018.5
20260831203056 75 229 1.0 3.0 0.00 0.01 0.01 60 1018.8
20260831201553 75 28 0.0 3.0 0.00 0.01 0.01 58 1018.8
20260831200053 75 166 0.0 3.0 0.00 0.01 0.01 60 1018.8
20260831194554 74 0 0.0 2.0 0.00 0.01 0.01 63 1018.9
20260831193049 74 0 0.0 5.0 0.00 0.01 0.01 61 1019.0
20260831191547 74 0 0.0 2.0 0.00 0.01 0.01 63 1019.1
20260831190057 75 0 0.0 3.0 0.00 0.01 0.01 58 1019.0
20260831184600 74 0 0.0 2.0 0.00 0.01 0.01 61 1019.1
20260831183044 75 0 0.0 3.0 0.00 0.01 0.01 57 1019.5
20260831181552 74 0 0.0 5.0 0.00 0.01 0.01 59 1019.6
20260831180100 73 0 0.0 4.0 0.00 0.01 0.01 55 1019.8
20260831174854 74 234 0.0 0.0 0.00 0.01 0.01 56 1019.8
20260831174545 73 0 0.0 3.0 0.00 0.01 0.01 58 1019.8
20260831173734 73 234 0.0 2.0 0.00 0.01 0.01 55 1019.8
20260831173218 73 353 0.0 0.0 0.00 0.01 0.01 59 1019.9
20260831173050 73 0 0.0 3.0 0.00 0.01 0.01 59 1020.0
20260831172703 73 5 0.0 0.0 0.00 0.01 0.01 62 1020.2
20260831171543 72 0 0.0 4.0 0.00 0.01 0.01 58 1020.4
20260831171540 72 279 0.0 3.0 0.00 0.01 0.01 58 1020.4
20260831171029 72 163 0.0 3.0 0.00 0.01 0.01 55 1020.3
20260831170529 72 35 0.0 0.0 0.00 0.01 0.01 65 1020.4
20260831170049 71 0 0.0 3.0 0.00 0.01 0.01 63 1020.5
20260831170017 71 245 0.0 0.0 0.00 0.01 0.01 63 1020.5
20260831164544 71 0 0.0 4.0 0.00 0.01 0.01 56 1020.7
20260831163043 70 0 0.0 3.0 0.00 0.01 0.01 64 1020.8
20260831161550 70 0 0.0 3.0 0.00 0.01 0.01 61 1020.9
20260831160047 70 353 0.0 3.0 0.00 0.01 0.01 65 1021.0
20260831154608 69 0 0.0 3.0 0.00 0.01 0.01 65 1021.1
20260831153054 69 240 0.0 3.0 0.00 0.01 0.01 69 1021.0
20260831151545 68 178 0.0 2.0 0.00 0.01 0.01 66 1020.9
20260831150045 66 0 0.0 2.0 0.00 0.01 0.01 74 1021.0
20260831144550 64 0 0.0 1.0 0.00 0.01 0.01 78 1021.0
20260831143044 62 0 0.0 2.0 0.00 0.01 0.01 84 1021.3
20260831142841 62 202 0.0 1.0 0.00 0.01 0.01 86 1021.2
20260831142334 61 7 0.0 0.0 0.00 0.01 0.01 89 1021.2
20260831141819 60 7 0.0 0.0 0.00 0.01 0.01 91 1021.2
20260831141546 59 0 0.0 2.0 0.00 0.01 0.01 92 1021.4
20260831141301 59 26 0.0 1.0 0.00 0.01 0.01 92 1021.3
20260831140755 59 301 0.0 1.0 0.00 0.01 0.01 93 1021.2
20260831140048 58 244 0.0 3.0 0.00 0.01 0.01 96 1021.3
20260831135619 58 195 0.0 0.0 0.00 0.01 0.01 97 1021.2
20260831134546 57 0 0.0 0.0 0.00 0.01 0.01 97 1021.1
20260831134504 58 195 0.0 0.0 0.00 0.01 0.01 97 1021.2
20260831134010 57 195 0.0 0.0 0.00 0.01 0.01 97 1021.2
20260831133517 57 195 0.0 0.0 0.00 0.01 0.01 97 1021.2
20260831133045 56 0 0.0 1.0 0.00 0.01 0.01 97 1021.3
20260831133017 57 195 0.0 0.0 0.00 0.01 0.01 97 1021.3
20260831132512 56 195 0.0 0.0 0.00 0.01 0.01 97 1021.3
20260831131952 56 195 0.0 0.0 0.00 0.01 0.01 97 1021.3
20260831131551 55 0 0.0 0.0 0.00 0.01 0.01 97 1021.4
20260831131438 56 195 0.0 0.0 0.00 0.01 0.01 97 1021.3
20260831130928 55 195 0.0 0.0 0.00 0.01 0.01 97 1021.5
20260831130415 55 195 0.0 0.0 0.00 0.01 0.01 97 1021.5
20260831130052 55 0 0.0 0.0 0.00 0.01 0.01 97 1021.5
20260831125914 55 195 0.0 0.0 0.00 0.01 0.01 97 1021.5
20260831124756 55 195 0.0 0.0 0.00 0.01 0.01 97 1021.6
20260831124549 54 0 0.0 2.0 0.00 0.01 0.01 97 1021.6
20260831124255 55 195 0.0 1.0 0.00 0.01 0.01 97 1021.5
20260831123739 55 195 0.0 1.0 0.00 0.01 0.01 97 1021.5
20260831123221 55 195 0.0 0.0 0.00 0.01 0.01 97 1021.5
20260831123041 54 0 0.0 2.0 0.00 0.01 0.01 97 1021.4
20260831122720 55 195 0.0 1.0 0.00 0.01 0.01 97 1021.4
20260831122218 54 195 0.0 1.0 0.00 0.01 0.01 97 1021.3
20260831121706 54 166 0.0 0.0 0.00 0.01 0.01 97 1021.3
20260831121545 54 0 0.0 1.0 0.00 0.01 0.01 97 1021.4
20260831121155 54 166 0.0 0.0 0.00 0.01 0.01 97 1021.4
20260831120654 54 166 0.0 0.0 0.00 0.01 0.01 97 1021.4
20260831120053 54 0 0.0 0.0 0.00 0.01 0.01 97 1021.5
20260831114544 53 0 0.0 0.0 0.00 0.01 0.01 97 1021.3
20260831113228 53 166 0.0 0.0 0.00 0.01 0.01 97 1021.2
20260831113046 53 0 0.0 0.0 0.00 0.01 0.01 97 1021.3
20260831111544 52 0 0.0 0.0 0.00 0.01 0.01 96 1020.9
20260831110046 52 0 0.0 0.0 0.00 0.01 0.01 96 1020.8
20260831104544 51 0 0.0 0.0 0.00 0.01 0.01 96 1020.9
20260831103041 51 0 0.0 0.0 0.00 0.01 0.01 95 1020.8
20260831101552 51 0 0.0 0.0 0.00 0.01 0.01 95 1020.7
20260831100043 52 0 0.0 0.0 0.00 0.01 0.01 95 1020.7
20260831094544 52 0 0.0 0.0 0.00 0.01 0.01 95 1020.7
20260831093050 53 0 0.0 0.0 0.00 0.01 0.01 95 1020.5
20260831091557 53 0 0.0 0.0 0.00 0.01 0.01 95 1020.4
20260831090051 53 0 0.0 0.0 0.00 0.01 0.01 95 1020.3
20260831084547 53 0 0.0 0.0 0.00 0.01 0.01 95 1020.1
20260831083043 54 0 0.0 0.0 0.00 0.01 0.01 95 1020.0
20260831081548 54 0 0.0 0.0 0.00 0.01 0.01 95 1019.9
20260831080101 54 0 0.0 0.0 0.00 0.01 0.01 95 1019.9
20260831074545 55 0 0.0 0.0 0.00 0.01 0.01 95 1019.8
20260831073111 55 0 0.0 0.0 0.00 0.01 0.01 95 1019.6
20260831071550 56 0 0.0 0.0 0.00 0.01 0.01 95 1019.5
20260831070046 57 0 0.0 0.0 0.00 0.01 0.01 95 1019.3
20260831064547 57 0 0.0 0.0 0.00 0.01 0.01 95 1019.4
20260831063045 57 0 0.0 0.0 0.00 0.01 0.01 95 1019.3
20260831061549 58 0 0.0 0.0 0.00 0.01 0.01 95 1019.4
20260831060055 58 0 0.0 0.0 0.00 0.01 0.01 95 1019.3
20260831054551 58 0 0.0 0.0 0.00 0.01 0.01 94 1019.4
20260831053047 59 0 0.0 0.0 0.00 0.01 0.01 94 1019.4
20260831051541 59 0 0.0 0.0 0.00 0.01 0.01 94 1019.4
20260831050055 60 0 0.0 0.0 0.01 0.01 0.01 94 1019.2
20260831044555 60 0 0.0 0.0 0.01 0.01 0.01 95 1019.0
20260831043043 61 0 0.0 0.0 0.01 0.01 0.01 95 1018.9
20260831041559 61 0 0.0 0.0 0.01 0.01 0.01 95 1018.9
20260831040043 61 0 0.0 0.0 0.00 0.00 0.00 94 1018.9
20260831034549 61 0 0.0 0.0 0.00 0.00 0.00 94 1018.6
20260831033048 61 0 0.0 0.0 0.00 0.00 0.00 94 1018.6
20260831031543 61 0 0.0 0.0 0.00 0.00 0.00 94 1018.6
20260831030053 62 0 0.0 0.0 0.00 0.00 0.00 94 1018.6
20260831024544 62 0 0.0 0.0 0.00 0.00 0.00 93 1018.7
20260831023044 62 0 0.0 0.0 0.00 0.00 0.00 93 1018.5
20260831021547 62 0 0.0 0.0 0.00 0.00 0.00 93 1018.4
20260831020051 62 0 0.0 0.0 0.00 0.00 0.00 92 1018.5
20260831014549 63 0 0.0 0.0 0.00 0.00 0.00 92 1018.2
20260831013054 63 0 0.0 0.0 0.00 0.00 0.00 91 1018.0